Location: Wald
(31.7579°N, 86.6655°W)
Time: 20:33:56
(UTC+00:00)

Sich 1 Rocket - Pass Details

Date: 14 July 2020
Orbit: 615 x 653 km, 82.5° (Epoch: 13 August)

Event Time Altitude Azimuth Distance (km) Brightness Sun altitude
Exits shadow 09:45:04 16° 207° (SSW) 1,681 5.2 -13.0°
Maximum altitude 09:48:29 49° 278° (W) 838 3.9 -12.4°
Drops below altitude 10° 09:52:53 10° 354° (N) 2,039 6.6 -11.6°
Sets 09:55:11 0° 360° (N) 2,945 7.5 -11.2°
